Regional Weather Roundup
Issued by NWS

Home | Current Version | Previous Version | Text Only | Print | Product List | Glossary Off
Versions: 1 2 3 4 5 6 7 8 9 10 11 12 13 14 15 16 17 18 19 20 21 22 23 24 25 26 27 28 29 30 31 32 33 34 35 36 37 38 39 40 41 42 43 44 45 46 47 48 49 50

000
ASUS43 KLMK 040610
RWRKY
KENTUCKY REGIONAL WEATHER ROUNDUP
NATIONAL WEATHER SERVICE LOUISVILLE KY
200 AM EDT MON MAY 04 2015

NOTE "FAIR" INDICATES FEW OR NO CLOUDS BELOW 12,000 FEET
WITH NO SIGNIFICANT WEATHER AND/OR OBSTRUCTIONS TO VISIBILITY.

KYZ001>023-026-027-061>063-070>075-040700-
WESTERN AND SOUTH CENTRAL KENTUCKY

CITY           SKY/WX    TMP DP  RH WIND       PRES   REMARKS
PADUCAH        CLEAR     67  48  50 S7        30.05R
HENDERSON      CLEAR     61  46  59 S6        30.06R
OWENSBORO      FAIR      60  52  75 S5        30.09R
HOPKINSVILLE   CLEAR     63  49  61 S5        30.09S
BOWLING GREEN  CLEAR     59  50  72 CALM      30.11F
GLASGOW        CLEAR     60  49  67 CALM      30.12S
$$

KYZ024-025-028>034-038-045-046-053-040700-
NORTH CENTRAL KENTUCKY

CITY           SKY/WX    TMP DP  RH WIND       PRES   REMARKS
LOUISVILLE/SDF PTCLDY    63  51  65 SE6       30.09R
LOUISVILLE/LOU CLEAR     63  50  62 S3        30.10R
FORT KNOX      CLEAR     59  49  70 SW3       30.09R
$$

KYZ035>037-039>044-047>052-055>060-089>105-040700-
NORTHEAST KENTUCKY

CITY           SKY/WX    TMP DP  RH WIND       PRES   REMARKS
LEXINGTON      CLEAR     59  47  64 SE8       30.12S
COVINGTON      CLEAR     58  49  72 S6        30.10R
FRANKFORT      CLEAR     57  48  72 CALM      30.10S
$$

KYZ054-064>069-076>088-106>120-040700-
SOUTHEAST KENTUCKY

CITY           SKY/WX    TMP DP  RH WIND       PRES   REMARKS
JACKSON        CLEAR     61  44  53 SW3       30.16S
LONDON         CLEAR     57  49  74 CALM      30.16S
SOMERSET       CLEAR     54  48  82 CALM      30.16S
MIDDLESBORO    CLEAR     50  48  93 CALM      30.20S
MONTICELLO     CLEAR     53  51  93 CALM      30.18S
$$




USA.gov is the U.S. government's official web portal to all federal, state and local government web resources and services.